Regional Weather Roundup
Issued by NWS

Home | Current Version | Previous Version | Text Only | Print | Product List | Glossary On
Versions: 1 2 3 4 5 6 7 8 9 10 11 12 13 14 15 16 17 18 19 20 21 22 23 24 25 26 27 28 29 30 31 32 33 34 35 36 37 38 39 40 41 42 43 44 45 46 47 48 49 50
000
ASUS43 KDTX 282210
RWRMI
MICHIGAN HOURLY REGIONAL WEATHER ROUNDUP
NATIONAL WEATHER SERVICE DETROIT/PONTIAC MI
500 PM EST SUN DEC 28 2014

NOTE: "FAIR" INDICATES FEW OR NO CLOUDS BELOW 12,000 FEET WITH NO
SIGNIFICANT WEATHER AND/OR OBSTRUCTION TO VISIBILITY.

MIZ047>049-052>055-059>063-066>070-074>076-081>083-282300-
SOUTHEAST LOWER MICHIGAN

CITY           SKY/WX    TMP DP  RH WIND       PRES   REMARKS
ADRIAN         MOCLDY    33  23  66 W7        30.15R
ALMA           CLEAR     32  22  66 W10       30.11S
ANN ARBOR      PTCLDY    32  23  69 W5        30.12R
BAD AXE        CLEAR     31  23  71 W12       30.08R
DETROIT CITY   PTCLDY    36  20  52 W7        30.12R
DETROIT        MOCLDY    34  22  61 SW5       30.13R
FLINT          PTCLDY    32  22  66 W7        30.12R
GROSSE ILE     MOCLDY    36  21  55 W6        30.12R
HILLSDALE      PTCLDY    34  24  67 W6        30.12R
HOWELL         MOCLDY    32  23  69 W8        30.10R

CITY           SKY/WX    TMP DP  RH WIND       PRES   REMARKS
JACKSON        MOCLDY    32  20  61 W9        30.12R
LAMBERTVILLE   MOCLDY    36  28  75 W6        30.15R
LANSING        PTCLDY    32  21  64 W9        30.13R
LAPEER         NOT AVBL
MASON          MOCLDY    32  21  63 W6        30.12R
MONROE         CLOUDY    34  25  69 W7        30.12R
MT. CLEMENS    MOCLDY    35  16  46 W5        30.08R
PONTIAC        PTCLDY    32  19  58 W10       30.09R
PORT HOPE        N/A     32  20  61 VRB6      30.05R
PORT HURON     PTCLDY    34  19  55 W3        30.10R
TRI CITIES     CLEAR     33  21  61 W13       30.11R
YPSILANTI      PTCLDY    36  23  59 W6        30.13R
$$
MIZ043>046-050>051-056>058-064>065-071>073-077>080-282300-
SOUTHWEST LOWER MICHIGAN

CITY           SKY/WX    TMP DP  RH WIND       PRES   REMARKS
BATTLE CREEK   PTCLDY    32  21  64 W9        30.14R
BENTON HARBOR  CLEAR     30  19  63 W8        30.18R
BIG RAPIDS     MOCLDY    29  21  71 W12       30.11R
COLDWATER      MOCLDY    33  21  62 W6        30.14R
HOLLAND        CLOUDY    33  22  63 W8        30.16R
GRAND RAPIDS   MOCLDY    31  21  66 W10       30.14R
KALAMAZOO      PTCLDY    32  20  61 W10       30.15R
MARSHALL       MOCLDY    32  21  64 W7        30.13R
MUSKEGON       MOCLDY    31  22  69 W6        30.16R
$$
MIZ016>042-282300-
NORTHERN LOWER MICHIGAN

CITY           SKY/WX    TMP DP  RH WIND       PRES   REMARKS
ALPENA         CLOUDY    29  19  66 W12G17    30.05R
BEAVER ISLAND  CLOUDY    25  15  64 W9        30.09R
BELLAIRE       CLOUDY    29  18  62 W5        30.11R
CADILLAC       CLOUDY    25  17  72 W10       30.07R
CHARLEVOIX     CLOUDY    27  17  64 W14G22    30.12R
FRANKFORT      MOCLDY    27  17  67 W8        30.13R
GAYLORD        CLOUDY    24  18  77 W9        30.04R
GRAYLING       CLOUDY    28  20  71 W9G17     30.07R
HARBOR SPRINGS CLOUDY    27  16  64 W10       30.07R
HOUGHTON LAKE  CLOUDY    27  18  69 W14G21    30.07R
MANISTEE       MOCLDY    28  14  54 NW10G16   30.14R
OSCODA         CLOUDY    32  19  58 W9        30.06R
PELLSTON       PTCLDY    25  15  66 NW13G21   30.08R
TRAVERSE CITY  CLOUDY    28  16  60 W13       30.11R
$$
MIZ007>008-015-282300-
EASTERN UPPER MICHIGAN

CITY           SKY/WX    TMP DP  RH WIND       PRES   REMARKS
KINROSS        CLOUDY    21  18  86 W16       30.05R
MACKINAC ISLAN MOCLDY    26  17  70 NW15      30.05R
NEWBERRY       FLURRIES  19  16  86 W8        30.07R
S. S. MARIE    LGT SNOW  23  13  65 NW16G28   30.06R
$$
MIZ004>006-011>014-085-282300-
CENTRAL UPPER MICHIGAN

CITY           SKY/WX    TMP DP  RH WIND       PRES   REMARKS
MANISTIQUE     MOCLDY    20  15  79 NW7       30.11R
ESCANABA       CLOUDY    21  12  68 NW9       30.13R
MENOMINEE      CLOUDY    25  10  54 NW6       30.14R
SAWYER-GWINN   MOCLDY    16   9  73 N9        30.10R
$$
MIZ001>003-009>011-084-282300-
WESTERN UPPER MICHIGAN

CITY           SKY/WX    TMP DP  RH WIND       PRES   REMARKS
IRON MOUNTAIN    N/A     19  10  68 NW10      30.11R
HOUGHTON       LGT SNOW  13   6  74 W13       30.12R WCI  -2
COPPER HARBOR    N/A     17   9  70 N14G21    30.14R
IRONWOOD       CLOUDY    12   7  79 NW6       30.15R
$$

ABBREVIATIONS USED IN REMARKS
   TC - TEMPERATURE IN CELSIUS
  WCI - WIND CHILL INDEX
   HX - HEAT INDEX
  VSB - VISIBILITY




USA.gov is the U.S. government's official web portal to all federal, state and local government web resources and services.